Regional Weather Roundup
Issued by NWS Sioux Falls, SD

Home | Current Version | Previous Version | Text Only | Print | Product List | Glossary Off
Versions: 1 2 3 4 5 6 7 8 9 10 11 12 13 14 15 16 17 18 19 20 21 22 23 24 25 26 27 28 29 30 31 32 33 34 35 36 37 38 39 40 41 42 43 44 45 46 47 48 49 50

069
ASUS43 KFSD 181102
RWRFSD

WEATHER ROUNDUP FOR SE SOUTH DAKOTA/SW MINNESOTA/NW IOWA
NATIONAL WEATHER SERVICE SIOUX FALLS SD
500 AM CST WED JAN 18 2017

NOTE: "FAIR" INDICATES FEW OR NO CLOUDS BELOW 12,000 FEET WITH NO
SIGNIFICANT WEATHER AND OR OBSTRUCTIONS TO VISIBILITY.


SDZ038>040-050-052>070-181200-
SOUTHEAST SOUTH DAKOTA

CITY           SKY/WX    TMP DP  RH WIND       PRES   REMARKS
BROOKINGS      CLOUDY    23  22  96 S13       29.87F WCI  11
CHAMBERLAIN    CLOUDY    22  19  88 W5        29.88F WCI  15
HURON          CLOUDY    20  19  96 MISG      29.87F
MADISON          N/A     27  27 100 SW10        N/A  WCI  17
MITCHELL       CLOUDY    18  17  96 S5        29.91F WCI  11
SIOUX FALLS    CLOUDY    27  24  89 S5        29.92F WCI  22
WINNER         FAIR      30  19  63 CALM      29.87F
YANKTON        CLEAR     34  28  80 SW6       29.92F WCI  29
$$

MNZ071-072-080-081-089-090-097-098-181200-
SOUTHWEST MINNESOTA

CITY           SKY/WX    TMP DP  RH WIND       PRES   REMARKS
FAIRMONT       CLEAR     28  27  96 S16       29.96F FOG     WCI  16
JACKSON        CLOUDY    28  27  93 SW10      29.93F WCI  19
LUVERNE        CLOUDY    23  21  93 S7        29.93F WCI  15
MARSHALL       CLOUDY    28  25  88 S9        29.89F WCI  19
MONTEVIDEO     CLOUDY    25  25 100 SW13      29.87F WCI  13
PIPESTONE      CLOUDY    25  25 100 SW8       29.90F WCI  16
REDWOOD FALLS  CLOUDY    25  21  85 S10       29.91F WCI  15
TRACY          CLOUDY    31  27  88 SW15G21   29.89F WCI  20
WINDOM         CLEAR     28  27  93 S10       29.92S WCI  19
WORTHINGTON    CLOUDY    29  26  89 S16       29.92S WCI  17
$$

IAZ001>003-012>014-020>022-031-032-NEZ013-014-SDZ071-181200-
NORTHWEST IOWA

CITY           SKY/WX    TMP DP  RH WIND       PRES   REMARKS
CHEROKEE       CLOUDY    27  27 100 CALM      29.99F
DENISON        CLOUDY    28  27  93 S5        30.00S WCI  23
ESTHERVILLE    CLOUDY    25  25 100 S14       29.96F FOG     WCI  13
LE MARS        CLOUDY    28  27  93 S7        29.97F WCI  21
ORANGE CITY    CLOUDY    27  27 100 S8        29.95F WCI  18
SHELDON        CLOUDY    30  30 100 S14G21    29.93F WCI  20
SIOUX CITY     CLOUDY    26  23  88 E7        29.97F WCI  18
SPENCER        CLOUDY    29  26  89 S14       29.96F WCI  18
STORM LAKE     CLEAR     28  27  93 SW10      29.99F WCI  19
$$

ABBREVIATIONS USED IN REMARKS
   TC - TEMPERATURE IN CELSIUS
  WCI - WIND CHILL INDEX
   HX - HEAT INDEX
  VSB - VISIBILITY





USA.gov is the U.S. government's official web portal to all federal, state and local government web resources and services.